User: anonymous   Login
Location: Ostrava
(49.8330°N, 18.2830°E)
Time: 05:35:11
(UTC+02:00)
Language:

Cosmos 2221 - Orbit

View from above orbital plane
View from above orbital plane
View from above satellite
View from above satellite

Ground track
Ground track

The orbit data is extracted from the following two-line orbital elements,

1 22236U 92080A   15126.81592152  .00001352  00000-0  14846-3 0  9999
2 22236 082.5098 068.3025 0018274 044.9840 315.2854 14.86849669212514
Epoch (UTC): 06 May 2015 19:34:55
Eccentricity: 0.0018274
inclination: 82.5098°
perigee height: 595 km
apogee height: 620 km
right ascension of ascending node: 68.3025°
argument of perigee: 44.9840°
revolutions per day: 14.86849669
mean anomaly at epoch: 315.2854°
orbit number at epoch: 21251

The dashed part of the orbit path shows where the satellite is in the earth's shadow,  

DLR